Lid_Strength_Index
3 3 3 4 4 5 5 4 6 6 6 6 6 5 3 2 1 1 1 -1 -2 -2 -2 -2 -2 -2 -1 -1 0 1 1 2 2 2 3 3 2 2 3 3 3 3 3
3 3 4 4 5 5 4 4 5 6 7 7 7 5 4 4 4 3 2 1 -1 -2 -2 -2 -2 -2 -1 -1 -0 1 1 2 3 3 3 2 3 3 3 3 3 3 3
3 4 4 4 4 5 3 4 5 5 7 7 7 6 5 5 5 5 4 3 1 -1 -1 -2 -2 -2 -2 -1 0 1 2 2 3 3 3 3 3 4 4 3 3 3 3
2 3 3 4 3 3 3 4 4 5 7 8 8 7 6 6 5 5 5 4 3 2 -0 -1 -2 -2 -2 -1 -0 0 1 2 3 3 3 4 4 4 4 4 4 4 3
1 2 2 3 2 3 3 3 5 5 6 7 7 7 7 7 7 5 5 5 5 4 2 -1 -1 -2 -2 -2 -1 -1 1 2 3 3 3 4 4 4 4 4 4 4 4
1 2 2 2 2 3 3 4 5 6 6 7 6 6 7 7 8 8 6 5 5 4 3 3 1 1 -1 -2 -1 -0 0 1 2 3 3 4 4 4 5 5 4 4 4
1 1 2 2 3 3 3 4 5 6 7 7 8 7 8 8 8 9 8 7 6 5 5 4 4 4 3 -1 -1 -0 -0 0 2 2 2 3 3 4 5 5 4 4 4
2 1 1 2 2 4 4 4 6 8 8 7 8 8 9 8 8 9 9 8 8 6 6 5 5 5 5 4 3 0 0 1 1 2 2 3 3 4 4 4 4 4 4
2 1 0 2 3 3 3 4 5 7 8 7 7 7 9 10 9 8 8 8 9 9 7 6 5 6 6 6 4 2 1 1 1 1 2 2 2 3 3 4 4 4 4
1 2 1 1 2 3 4 4 4 6 6 8 7 7 7 7 9 10 9 8 8 9 9 8 7 6 7 7 5 4 3 2 1 1 1 2 2 2 2 3 3 4 3
1 0 1 1 1 3 3 3 4 5 5 5 6 8 7 8 8 9 9 9 9 9 8 7 8 9 7 7 8 6 3 3 2 1 1 1 1 2 2 2 3 3 3
1 1 0 1 2 2 3 3 3 4 5 5 5 6 6 7 9 8 9 9 9 8 7 7 7 8 8 8 7 5 4 4 3 2 1 2 1 1 1 2 2 3 3
2 1 1 2 2 2 2 2 4 4 5 5 6 7 6 6 6 7 8 9 9 9 9 8 8 8 7 7 7 5 4 4 4 3 2 2 1 2 1 2 2 2 2
2 1 1 1 1 2 2 2 3 4 4 5 5 5 6 5 6 7 8 8 10 12 11 9 8 7 8 7 7 6 6 5 4 4 3 3 2 2 2 2 2 2 2
1 2 0 1 1 2 3 4 4 5 5 5 5 5 6 6 6 8 7 8 9 12 11 8 11 10 9 9 8 9 8 6 4 4 4 4 3 2 2 2 2 2 2
2 3 3 3 3 4 4 6 6 5 5 6 6 6 7 7 7 7 7 6 7 8 10 9 9 10 9 9 8 9 9 6 5 5 5 5 4 3 3 2 1 1 1
2 3 3 3 4 5 5 6 6 5 6 6 6 7 7 6 7 6 7 7 7 8 10 8 9 10 11 11 10 10 9 9 8 6 5 5 5 4 3 2 1 0 -1
2 2 3 3 4 4 5 6 6 6 6 7 7 7 7 7 7 6 7 8 8 8 10 11 11 12 12 11 11 11 9 8 9 7 6 5 4 4 4 2 1 -0 -0
2 2 3 4 5 5 5 6 6 7 7 7 7 8 7 7 7 9 8 9 9 9 10 12 11 12 12 12 12 11 11 10 9 6 6 6 5 4 3 2 1 0 -0
2 4 4 5 4 6 6 7 6 7 7 7 7 7 7 7 7 8 9 9 10 10 10 11 11 12 13 12 13 13 12 11 11 8 7 7 5 4 2 1 0 -0 -0
3 5 5 5 6 6 7 7 8 8 8 8 8 7 8 6 7 8 9 10 12 11 12 13 14 15 15 15 15 14 13 12 11 10 9 9 8 6 4 2 0 -0 0
5 6 6 5 7 7 11 10 9 8 8 8 8 7 7 7 8 10 10 11 13 15 16 16 16 17 17 16 15 15 14 14 15 11 12 10 8 8 6 5 2 1 1
7 8 9 8 8 9 11 10 10 8 8 7 8 8 8 9 11 12 13 13 14 13 13 16 18 17 17 17 16 16 15 15 15 12 12 13 8 8 6 5 3 2 2
9 9 9 9 9 9 11 11 11 8 8 8 9 9 11 12 13 14 15 16 16 16 16 16 17 16 16 15 15 14 13 13 12 11 10 12 8 8 5 6 3 2 1
10 9 9 8 9 10 11 10 9 9 10 12 12 12 13 14 13 14 16 17 16 16 14 14 14 13 12 12 11 12 13 13 14 13 10 11 8 7 10 9 7 3 2
10 10 11 10 10 9 10 10 10 11 13 14 14 14 13 14 15 15 16 17 17 17 17 16 16 15 14 13 12 12 12 14 13 14 9 10 8 8 8 9 8 6 4